Theta_e
318 317 311 305 291 288 285 289 295 296 303 309 309 309 306 308 308 300 322 327 332 330 338 343 347 348 348 348 348 348 348 348 347 347 347 348 348 347 346 344 343 342 341 339 340 340 339 339 339
315 314 309 299 287 282 285 292 299 303 309 312 313 312 312 308 316 319 319 328 332 332 333 341 343 343 347 347 347 347 348 347 346 346 346 347 347 346 344 343 341 340 341 339 339 338 337 335 335
315 316 301 293 286 284 286 294 301 307 311 309 307 313 311 316 320 321 325 327 331 331 333 341 341 339 345 347 347 346 346 345 344 345 347 347 346 345 343 341 340 340 340 337 337 336 333 333 334
305 301 297 289 286 291 293 298 302 307 309 312 311 308 313 320 319 323 331 326 326 328 331 337 341 343 345 347 346 345 344 343 343 344 346 347 346 344 342 340 340 340 339 335 335 333 332 332 333
304 296 289 286 288 293 299 301 306 307 308 312 310 308 311 319 319 327 335 329 327 333 335 332 339 342 344 347 346 344 342 342 342 344 344 346 344 342 341 339 339 338 337 334 332 332 332 331 331
299 295 286 284 289 295 300 305 309 310 311 312 309 311 313 319 319 327 334 333 335 334 335 334 336 338 341 344 343 341 341 341 341 343 343 344 343 340 340 339 338 337 336 335 333 332 331 330 329
295 291 286 287 291 293 300 305 305 310 309 309 313 308 312 314 321 330 332 331 332 333 333 333 333 332 332 340 339 338 339 339 340 341 341 341 340 338 338 338 338 337 335 333 332 330 329 328 327
297 293 287 289 290 291 300 303 307 306 305 316 316 307 306 313 328 330 329 330 328 329 330 330 329 327 328 337 336 336 338 338 339 339 338 338 337 337 337 336 336 335 333 332 330 328 327 326 324
298 289 286 289 290 295 302 299 307 306 310 311 314 313 315 328 328 326 325 326 327 328 329 329 327 327 328 330 334 334 336 336 336 336 336 334 335 334 332 333 334 333 332 331 329 328 324 320 322
295 287 291 295 296 298 300 296 305 305 306 309 312 316 323 327 326 323 322 322 324 324 325 327 327 327 326 326 326 327 328 332 332 332 329 329 328 329 330 331 332 332 331 330 328 326 322 317 308
294 292 299 299 300 301 301 301 307 306 304 310 308 313 325 323 322 321 321 320 321 323 325 326 326 326 324 322 323 327 325 325 325 325 327 328 328 327 327 327 325 324 325 320 319 313 312 310 305
293 299 299 299 304 303 301 303 310 309 310 317 318 325 322 320 320 320 319 318 318 320 321 325 326 325 324 322 321 325 324 324 323 325 325 324 323 320 320 320 319 318 316 314 311 312 308 306 305
296 299 302 303 305 302 305 303 309 308 317 317 323 322 320 319 320 321 319 318 317 316 317 319 322 323 323 322 323 324 323 323 324 324 324 323 319 317 316 316 315 314 312 311 312 309 307 305 305
301 301 301 302 303 302 302 304 307 312 316 313 315 317 317 318 319 319 317 315 316 317 316 317 318 319 321 321 320 321 323 323 325 325 324 322 319 319 316 315 314 314 312 313 312 309 307 305 303
302 297 298 298 300 300 301 298 300 311 313 312 315 318 314 315 317 317 318 315 316 316 317 317 318 319 318 317 319 321 322 325 324 324 325 322 321 319 317 314 315 314 312 314 311 309 308 305 304
298 295 290 298 299 302 301 293 305 310 311 309 315 315 313 314 316 317 317 317 317 316 316 318 319 318 318 317 318 317 319 322 322 323 324 324 323 321 318 316 316 316 314 314 311 310 308 305 303
293 289 291 295 300 301 299 295 303 309 311 311 312 310 309 310 314 316 317 315 316 316 316 316 317 316 315 315 315 314 315 316 316 320 321 322 323 322 321 318 317 317 316 314 313 310 308 304 301
289 290 294 293 297 300 296 296 302 306 307 308 307 308 308 309 310 314 316 316 316 316 315 315 315 315 314 315 315 314 315 316 315 315 318 320 321 322 321 319 317 316 314 312 310 309 308 305 303
295 294 293 296 299 299 297 296 298 304 305 304 305 307 307 309 311 313 314 315 314 315 314 312 312 313 314 313 312 311 311 313 313 314 317 320 321 322 320 318 315 315 313 313 311 309 307 305 303
296 294 293 297 300 298 295 293 296 304 305 306 306 307 307 309 311 312 312 312 312 313 312 311 310 311 312 312 312 311 312 315 315 315 317 320 322 323 321 319 316 316 313 312 310 309 305 304 304
296 293 294 293 297 296 294 292 295 301 305 308 309 309 310 310 310 311 312 311 312 312 312 311 311 311 312 313 312 314 314 314 314 315 316 320 323 325 323 321 320 317 315 312 310 308 306 304 304
292 299 298 297 293 287 294 285 293 297 302 306 308 308 310 311 313 312 311 310 311 311 313 313 313 311 313 314 313 313 313 312 315 315 317 321 323 324 324 323 321 317 317 313 311 309 307 307 305
295 301 299 298 293 289 290 288 292 297 298 303 307 309 310 312 312 312 312 312 312 313 312 312 313 313 313 315 315 315 314 316 316 315 316 321 323 324 324 324 322 318 315 315 313 311 310 310 307
302 298 296 295 292 285 291 290 289 292 297 303 307 309 310 311 313 313 314 313 312 314 313 312 312 313 314 315 317 318 317 317 314 314 316 319 322 323 324 324 322 321 317 315 313 311 311 310 306
298 292 284 283 282 283 294 291 293 298 299 304 307 308 310 312 312 313 313 312 312 312 312 312 312 312 314 317 319 320 320 318 316 314 317 318 320 321 323 323 322 320 318 315 315 313 312 308 306
294 293 285 281 281 285 295 289 292 300 302 303 307 311 311 311 312 311 313 313 310 311 312 312 312 313 315 316 321 322 322 320 318 316 319 320 321 322 323 323 323 317 315 314 313 308 305 304 304
294 290 297 290 290 285 289 293 298 298 298 299 302 310 310 311 312 313 313 313 313 310 311 312 314 315 317 318 321 323 322 320 319 318 318 322 322 322 321 321 317 314 312 309 307 305 304 305 303
297 299 290 290 283 282 287 288 290 295 296 298 299 305 309 310 312 313 315 315 314 315 314 315 315 315 318 320 321 322 322 322 320 318 318 320 321 319 318 316 315 312 310 307 306 304 303 301 301
294 293 294 294 291 283 281 286 295 297 299 297 298 301 305 310 312 313 314 316 317 317 317 316 317 318 320 321 322 322 321 321 321 318 318 317 317 317 317 315 313 310 308 305 303 302 301 300 299
298 296 295 287 287 288 285 288 298 299 299 298 298 302 302 305 309 312 315 315 317 318 318 319 319 320 322 323 322 322 323 321 320 319 318 318 316 317 316 311 311 308 305 302 301 299 300 299 299
Wind_Speed
0 3 1 5 5 5 4 8 5 7 4 1 2 1 3 5 3 3 3 6 4 5 2 18 21 11 7 12 15 21 22 23 24 25 26 26 26 26 26 25 23 24 22 23 25 24 23 21 18
2 3 4 3 5 2 7 4 4 2 4 5 3 2 3 4 4 2 4 7 8 8 5 8 25 15 8 13 16 19 22 23 24 25 26 26 27 26 26 25 22 22 22 23 23 22 21 18 15
1 1 4 4 3 6 5 5 6 6 5 4 2 2 3 1 1 4 10 9 10 8 3 13 30 37 26 18 18 19 21 21 23 24 25 26 27 27 25 25 23 22 20 22 21 20 18 16 13
2 5 4 4 7 11 6 17 6 5 3 4 2 4 2 8 3 6 7 9 8 7 6 10 28 32 30 28 22 21 22 22 24 25 24 27 26 26 24 23 23 21 20 21 19 18 17 16 20
4 3 3 3 8 9 13 10 5 6 1 4 5 3 3 3 9 8 6 8 7 6 9 8 18 26 25 24 24 23 22 22 23 25 25 26 25 26 24 23 22 20 18 18 17 16 17 18 19
4 3 3 3 7 8 9 7 6 4 1 3 2 1 6 6 7 8 5 7 8 8 5 9 10 1 30 31 29 24 22 22 24 22 24 26 25 24 23 22 21 19 17 15 14 14 15 18 18
6 4 5 5 12 11 5 1 5 5 5 3 4 5 7 9 5 4 6 7 7 10 13 16 11 5 11 35 28 27 21 22 24 23 22 22 24 23 22 22 20 19 17 15 13 13 13 14 15
5 4 3 6 8 12 7 1 3 8 2 4 1 4 6 5 11 6 6 9 11 5 5 12 6 11 13 20 25 23 20 20 21 21 18 21 22 22 21 21 20 18 17 15 13 11 12 13 18
3 3 5 8 4 6 2 2 3 1 6 1 3 3 5 6 6 6 6 7 7 5 4 8 13 12 13 21 21 19 17 21 22 21 22 16 11 14 15 16 18 19 17 14 12 11 13 12 16
4 3 8 8 5 8 4 3 5 5 4 2 4 4 3 7 4 4 3 3 3 8 8 8 13 15 19 15 15 7 4 8 11 11 12 8 9 9 11 14 16 16 16 13 12 13 10 9 5
4 6 15 19 6 8 0 6 3 8 3 4 3 4 3 4 3 3 4 1 0 5 9 9 13 15 17 16 16 3 2 5 7 10 10 9 8 8 7 7 5 6 10 4 5 6 4 6 5
3 10 11 9 7 2 3 2 7 2 3 3 9 8 5 4 1 1 4 3 2 5 7 11 11 14 16 12 10 12 5 4 6 8 11 8 5 5 5 5 6 6 4 5 5 4 5 6 6
6 8 9 7 8 4 0 7 9 4 1 6 10 9 12 5 3 4 5 5 4 6 6 8 9 11 13 15 14 10 9 8 8 8 8 8 6 6 4 6 4 6 5 5 4 5 4 6 5
6 6 12 7 7 3 1 8 8 4 6 4 7 3 8 8 5 3 7 6 4 8 8 7 9 11 12 12 13 10 7 7 8 7 7 8 6 7 6 7 5 5 5 4 5 5 5 5 5
6 8 10 7 3 2 3 1 4 13 9 10 5 10 7 5 5 4 6 10 9 6 8 9 11 10 11 11 7 7 7 9 8 8 10 10 9 5 7 5 5 5 5 6 5 4 4 5 3
6 4 4 12 2 4 7 11 6 13 12 7 8 9 12 8 7 6 8 9 10 8 9 8 7 9 9 8 6 6 5 8 8 7 6 9 8 7 7 5 5 5 5 4 4 5 4 4 4
3 7 7 11 7 5 5 7 6 10 9 7 6 6 5 8 11 8 9 8 9 8 8 9 10 10 10 4 3 4 4 4 4 4 5 6 7 6 6 5 5 6 5 4 5 2 4 4 3
7 5 5 8 6 5 4 6 10 10 12 12 8 7 6 8 8 11 11 10 9 8 9 10 10 11 11 4 3 3 0 1 4 3 4 7 5 7 6 5 5 5 5 5 4 4 2 3 5
5 11 14 17 13 6 7 6 9 10 5 11 9 9 10 11 6 6 11 11 9 9 10 9 11 11 8 6 8 8 8 2 0 3 8 8 7 6 6 5 6 5 7 7 6 4 5 3 3
9 13 19 18 6 5 5 6 5 17 13 18 17 15 13 9 10 10 8 12 12 12 9 8 9 8 8 7 6 5 3 1 2 3 5 4 7 6 6 7 7 7 4 6 6 5 3 3 5
15 13 18 8 5 1 1 6 3 8 5 8 13 14 12 15 15 14 14 13 13 14 12 11 11 11 9 8 4 2 1 2 2 4 4 4 6 9 9 8 7 7 6 6 6 6 7 5 4
11 15 9 5 3 2 1 6 5 5 8 15 14 16 16 16 14 13 14 14 14 13 10 10 11 12 12 11 10 11 9 10 8 8 7 8 11 10 10 10 9 7 6 6 7 6 5 5 5
14 18 6 4 3 2 3 1 8 4 7 10 16 20 19 20 20 19 18 18 18 14 12 11 13 14 16 14 15 12 11 9 7 6 10 10 9 11 12 11 10 8 6 7 8 7 7 5 5
16 5 4 4 2 3 5 6 7 5 11 18 18 21 22 21 21 19 17 16 15 14 14 13 15 16 16 15 16 15 14 13 9 8 9 8 8 10 11 10 9 9 8 8 7 7 9 8 4
7 5 2 4 3 7 3 3 12 7 7 17 24 24 23 22 21 20 20 19 18 20 19 17 18 18 17 17 16 17 16 16 15 12 11 11 9 8 11 11 12 9 9 8 8 8 7 5 4
8 9 7 6 5 4 4 6 7 10 9 9 14 24 22 21 20 22 24 22 21 23 23 21 22 21 20 21 20 18 20 13 13 13 11 11 11 11 13 14 12 9 8 7 5 5 5 8 8
7 6 9 7 1 2 4 7 8 2 4 3 8 15 20 20 21 23 22 21 20 21 24 25 23 23 22 21 19 19 18 18 16 15 11 11 12 9 11 11 8 8 7 8 8 7 9 8 6
11 8 4 2 7 4 5 5 5 4 5 3 7 12 16 20 18 16 17 19 19 20 21 19 21 23 22 20 18 17 18 18 16 11 11 9 8 5 5 6 6 5 7 10 9 8 8 9 7
2 5 3 7 6 7 2 7 8 9 7 8 9 9 13 15 17 18 18 19 21 22 20 21 20 19 18 16 13 16 16 15 11 6 5 3 5 4 6 6 8 8 9 10 10 9 11 10 8
12 13 11 7 5 3 5 9 5 9 7 7 8 10 9 10 15 16 19 18 20 21 19 21 18 18 17 18 17 15 12 10 11 8 8 10 9 9 13 11 10 10 9 8 9 9 9 9 8
Wind_Direction
76 168 127 48 48 62 285 274 288 338 347 10 259 18 31 26 33 162 295 283 192 261 249 144 120 115 133 121 127 128 129 126 124 122 119 119 119 117 115 113 114 113 114 111 107 106 104 103 103
168 141 39 84 85 36 270 246 79 172 245 271 145 70 86 133 145 174 307 215 203 239 263 154 121 131 160 153 149 139 136 131 130 126 125 127 125 120 119 116 116 115 115 112 109 106 103 99 90
195 116 88 106 134 200 236 269 147 227 267 212 162 94 104 40 131 164 223 192 197 219 220 176 157 153 190 172 159 147 137 134 131 132 130 129 125 121 123 122 120 117 114 111 109 104 98 86 80
84 16 24 101 254 265 222 276 279 240 252 357 27 35 55 70 2 295 239 200 181 178 209 204 166 162 170 163 157 150 143 142 138 136 132 129 126 125 124 121 120 118 115 111 105 97 86 78 77
29 71 45 336 278 255 280 232 199 212 234 22 11 350 161 198 348 316 306 180 184 186 192 182 198 166 151 159 153 149 143 144 137 135 134 130 129 127 125 123 121 118 113 108 100 90 82 76 76
18 96 51 266 267 292 291 172 174 80 92 342 59 330 263 154 77 344 28 138 121 128 116 144 7 29 179 180 146 144 145 146 138 137 132 129 127 126 124 123 120 115 109 99 87 80 81 83 78
145 93 225 240 279 298 266 315 137 132 129 234 166 188 254 107 50 54 70 76 67 94 126 130 144 79 348 179 147 136 152 146 138 135 133 125 127 126 125 121 120 118 113 103 91 78 72 80 86
113 100 287 244 271 280 256 317 67 115 245 111 157 248 313 2 80 72 79 77 77 66 147 133 131 45 1 184 121 125 139 129 123 124 123 119 122 123 125 124 123 117 111 105 96 87 79 64 69
116 75 271 260 271 267 283 310 43 104 126 343 326 311 331 47 51 61 49 53 95 78 99 116 116 111 83 40 90 107 100 105 107 107 111 113 121 121 123 124 126 122 115 113 103 87 69 59 65
123 128 248 236 284 264 275 37 147 115 160 231 262 281 321 62 51 60 41 73 108 126 102 100 113 115 115 108 76 74 128 114 107 113 107 112 115 121 120 124 122 121 112 109 98 83 73 56 70
204 222 272 279 223 232 303 27 105 141 54 230 195 142 87 74 61 79 85 52 69 123 126 119 119 120 117 124 124 191 84 98 105 108 110 112 109 116 125 119 124 109 102 89 89 86 65 96 91
302 259 257 258 207 223 350 123 57 13 195 91 120 148 156 118 317 93 113 91 71 116 115 127 128 125 127 135 136 143 148 116 134 128 113 120 118 120 115 144 131 123 114 115 114 101 95 95 96
208 268 292 273 256 270 188 75 128 46 350 91 148 194 146 122 131 140 125 111 124 112 107 119 127 133 145 142 141 149 146 136 141 127 132 142 139 124 144 140 134 122 119 140 124 117 134 111 100
284 297 292 280 283 265 123 145 100 239 177 162 196 80 79 121 143 153 140 128 128 123 120 111 131 137 140 141 139 139 136 134 133 144 143 138 131 137 166 132 147 131 134 161 139 151 142 122 115
291 318 315 287 287 284 126 327 120 171 170 197 221 106 97 126 169 192 155 149 150 115 134 134 135 133 136 141 129 135 141 145 146 142 143 151 136 172 154 149 150 148 152 153 137 128 115 125 130
335 319 333 281 192 209 115 269 182 169 178 169 140 137 134 158 183 149 146 137 160 126 130 129 136 124 125 136 126 122 135 142 137 139 144 152 150 181 146 164 155 157 142 159 149 147 138 150 163
324 260 251 294 267 146 160 245 156 171 139 153 134 121 126 152 167 162 156 147 146 138 127 136 139 131 119 109 96 110 123 126 129 134 145 137 180 172 156 161 159 154 155 163 165 151 141 148 182
225 250 294 283 291 169 174 230 140 187 174 176 151 146 168 177 197 163 157 151 145 147 140 139 143 141 141 144 97 92 247 183 156 139 124 171 180 180 150 147 151 158 160 162 164 144 142 153 180
269 287 278 278 264 151 226 234 208 171 193 164 155 170 183 200 209 176 157 165 156 156 158 155 149 155 150 155 161 173 181 235 295 205 180 179 190 178 155 155 160 173 174 177 169 147 163 189 157
250 266 277 281 268 152 233 255 183 174 192 177 172 181 188 182 184 185 164 174 179 176 170 169 174 166 169 174 183 185 175 255 224 243 270 194 175 163 169 171 179 179 165 169 170 156 137 179 174
248 247 265 250 318 350 134 313 303 165 185 179 181 186 184 179 187 185 187 186 183 190 188 180 185 177 186 186 183 150 82 320 241 249 254 251 207 193 188 186 184 185 183 188 187 170 165 168 203
256 256 249 259 59 235 70 282 273 194 174 185 187 188 190 184 194 190 187 185 191 198 189 185 188 189 200 190 194 198 200 207 218 223 233 225 209 201 193 194 191 189 191 186 189 174 169 144 181
240 253 241 264 290 37 315 80 267 190 197 191 186 195 193 190 186 191 191 192 195 185 190 190 191 196 200 198 199 201 210 213 204 198 197 202 204 205 201 197 195 194 192 198 189 182 181 181 159
245 216 55 37 85 329 248 167 273 234 195 191 193 194 191 190 191 195 195 188 193 192 189 192 197 202 203 204 210 211 212 218 213 209 207 207 203 208 207 199 194 204 195 190 191 183 186 188 174
195 92 345 337 358 225 293 190 238 280 227 180 185 192 191 191 186 189 191 192 192 192 193 195 202 208 208 215 219 221 220 219 215 213 212 209 209 210 209 196 202 199 194 187 175 177 178 154 144
194 163 159 198 219 251 289 241 250 255 218 193 181 189 185 186 190 191 193 192 194 194 196 197 201 209 208 212 216 217 222 221 221 214 209 211 211 208 202 206 206 182 157 144 134 117 121 136 144
211 161 181 130 266 69 253 297 316 57 81 153 168 167 184 188 193 197 196 195 195 195 201 201 202 208 213 212 212 216 216 221 216 216 204 204 204 205 202 202 193 156 137 134 137 142 145 155 161
177 163 93 2 176 228 272 250 236 289 218 208 145 181 191 195 194 199 202 199 200 206 209 208 214 211 212 218 220 218 211 215 217 204 209 213 211 179 168 174 159 162 141 141 148 147 149 152 160
149 164 142 153 153 172 260 262 212 228 213 191 196 188 190 188 192 195 201 204 204 204 205 210 214 218 216 215 209 216 213 209 200 207 204 177 68 123 134 168 179 166 164 158 154 160 162 160 153
224 195 183 152 210 184 179 250 260 226 234 197 209 197 188 185 194 198 204 200 202 207 206 206 208 213 222 220 219 204 204 195 182 161 166 148 141 185 197 181 181 170 158 154 147 144 154 156 162